"Pseudo-MPEC" for P122BMg

Created 2024 Dec 9 19:31:12 UT using Find_Orb

Click here for an explanation of pseudo-MPECs

 
 Astrometry: 
     P122BMg* C2024 11 28.60995707 34 59.837+32 16 48.10   ~BSJ2 22.41wXNEOCPF51
     P122BMg  C2024 11 28.63144407 34 59.361+32 17 30.93   ~BSJ2 22.30wXNEOCPF51
     P122BMg  C2024 11 28.64209007 34 59.150+32 17 52.45   ~BSJ2 22.94wXNEOCPF51
     P122BMg 3C2024 11 30.59471807 34 16.791+33 24 02.91   ~BUF2 21.85GVNEOCPT14
     P122BMg 3C2024 11 30.59569807 34 16.767+33 24 05.23   ~BUF2 22.21GVNEOCPT14
     P122BMg 3C2024 11 30.59668307 34 16.739+33 24 07.09   ~BUF2 21.82GVNEOCPT14

Station data:
(F51) Pan-STARRS 1, Haleakala  (N20.707234 W156.255910)  US/Hawaii.
   Observers J. Bulger, T. Lowe, A. Schultz, M. Willman. Measurers K.
   Chambers, S. Chastel, T. de Boer, L. Denneau, J. Fairlamb, H. Flewelling,
   M. Huber, C.-C. Lin, E. Magnier, Y. Ramanjooloo, R. Wainscoat, R. Weryk.
   1.8-m Ritchey-Chrétien + CCD.
(T14) Mauna Kea-UH/Tholen NEO Follow-Up (CFHT)  (N19.825252 W155.468876)
   US/Hawaii.  Observer R. Weryk. 3.6-m Canada-France-Hawaii Telescope.

Orbital elements:  P122BMg
   Perihelion 2025 Jun 20.98130 +/- 129 TT = 23:33:04 (JD 2460847.48130)
Epoch 2024 Nov 30.0 TT = JDT 2460644.5   Earth MOID: 0.6697      AutoNEOCP
M 281.82131904 +/- 80               (J2000 ecliptic)
n   0.38515212 +/- 0.133            Peri.  108.25529 +/- 90
a   1.87088826 +/- 0.431            Node    81.87638 +/- 5.5
e   0.1793038 +/- 0.0994            Incl.   40.42872 +/- 10
P   2.559/934.678d         H 19.89  G  0.15   U 11.4  SR
q 1.53543082 +/- 0.317    Q 2.20634570 +/- 0.894
From 6 observations 2024 Nov. 28-30 (47.7 hr); mean residual 0".14
Residuals in arcseconds: 
241128 F51  .05-  .21-    241128 F51  .16+  .30+    241130 T14  .02+  .16+    
241128 F51  .11-  .08-    241130 T14  .04-  .14-    241130 T14  .03+  .01-    

Ephemerides (geocentric):
Date (UTC) HH   RA             Dec           delta  r     elong  mag " sig PA
---- --------  ------------   ------------  ------ ------ -----  --- --------
2024 12 09 20  07 27 33.347   +39 04 55.28  .93773 1.8394 146.2 22.0  682 171
2024 12 09 21  07 27 30.694   +39 06 32.72  .93745 1.8393 146.2 22.0  687 171
2024 12 09 22  07 27 28.034   +39 08 10.20  .93718 1.8393 146.2 22.0  693 171
2024 12 09 23  07 27 25.365   +39 09 47.71  .93690 1.8392 146.3 22.0  699 171
2024 12 10 00  07 27 22.688   +39 11 25.26  .93663 1.8391 146.3 22.0  705 171
2024 12 10 01  07 27 20.003   +39 13 02.84  .93635 1.8390 146.4 22.0  711 171
2024 12 10 02  07 27 17.310   +39 14 40.46  .93608 1.8389 146.4 22.0  717 171
2024 12 10 03  07 27 14.609   +39 16 18.11  .93580 1.8388 146.4 22.0  723 171
2024 12 10 04  07 27 11.900   +39 17 55.80  .93553 1.8387 146.5 22.0  729 171
2024 12 10 05  07 27 09.183   +39 19 33.52  .93526 1.8386 146.5 22.0  735 171
2024 12 10 06  07 27 06.458   +39 21 11.28  .93499 1.8385 146.5 22.0  741 172
2024 12 10 07  07 27 03.724   +39 22 49.08  .93471 1.8384 146.6 22.0  747 172
2024 12 10 08  07 27 00.983   +39 24 26.91  .93444 1.8383 146.6 22.0  753 172
2024 12 10 09  07 26 58.233   +39 26 04.77  .93417 1.8382 146.6 22.0  760 172
2024 12 10 10  07 26 55.475   +39 27 42.67  .93390 1.8381 146.7 22.0  766 172
2024 12 10 11  07 26 52.710   +39 29 20.60  .93363 1.8380 146.7 22.0  772 172
2024 12 10 12  07 26 49.936   +39 30 58.57  .93337 1.8379 146.7 22.0  778 172
2024 12 10 13  07 26 47.153   +39 32 36.57  .93310 1.8378 146.8 22.0  784 172
2024 12 10 14  07 26 44.363   +39 34 14.60  .93283 1.8377 146.8 22.0  791 172
2024 12 10 15  07 26 41.565   +39 35 52.67  .93256 1.8376 146.8 22.0  797 172
2024 12 10 16  07 26 38.758   +39 37 30.77  .93230 1.8375 146.9 22.0  803 172
2024 12 10 17  07 26 35.944   +39 39 08.90  .93203 1.8374 146.9 22.0  810 172
2024 12 10 18  07 26 33.121   +39 40 47.07  .93176 1.8373 146.9 22.0  816 172
2024 12 10 19  07 26 30.290   +39 42 25.27  .93150 1.8373 147.0 22.0  823 172
2024 12 10 20  07 26 27.450   +39 44 03.50  .93123 1.8372 147.0 22.0  829 172
2024 12 10 21  07 26 24.603   +39 45 41.76  .93097 1.8371 147.0 22.0  835 172
2024 12 10 22  07 26 21.747   +39 47 20.06  .93071 1.8370 147.1 22.0  842 172
2024 12 10 23  07 26 18.883   +39 48 58.39  .93044 1.8369 147.1 22.0  848 172
2024 12 11 00  07 26 16.011   +39 50 36.75  .93018 1.8368 147.1 22.0  855 172
2024 12 11 01  07 26 13.131   +39 52 15.14  .92992 1.8367 147.2 22.0  862 172
2024 12 11 02  07 26 10.242   +39 53 53.57  .92966 1.8366 147.2 21.9  868 172
2024 12 11 03  07 26 07.345   +39 55 32.02  .92940 1.8365 147.3 21.9  875 172
2024 12 11 04  07 26 04.440   +39 57 10.51  .92914 1.8364 147.3 21.9  881 172
2024 12 11 05  07 26 01.527   +39 58 49.03  .92888 1.8363 147.3 21.9  888 173
2024 12 11 06  07 25 58.605   +40 00 27.58  .92862 1.8362 147.4 21.9  895 173
2024 12 11 07  07 25 55.675   +40 02 06.15  .92836 1.8361 147.4 21.9  902 173
2024 12 11 08  07 25 52.737   +40 03 44.76  .92810 1.8360 147.4 21.9  908 173
2024 12 11 09  07 25 49.791   +40 05 23.40  .92785 1.8359 147.5 21.9  915 173
2024 12 11 10  07 25 46.836   +40 07 02.08  .92759 1.8358 147.5 21.9  922 173
2024 12 11 11  07 25 43.873   +40 08 40.78  .92733 1.8357 147.5 21.9  929 173
2024 12 11 12  07 25 40.902   +40 10 19.51  .92708 1.8356 147.6 21.9  936 173
2024 12 11 13  07 25 37.922   +40 11 58.27  .92682 1.8355 147.6 21.9  943 173
2024 12 11 14  07 25 34.934   +40 13 37.05  .92657 1.8354 147.6 21.9  950 173
2024 12 11 15  07 25 31.938   +40 15 15.87  .92631 1.8353 147.7 21.9  956 173
2024 12 11 16  07 25 28.933   +40 16 54.72  .92606 1.8353 147.7 21.9  963 173
2024 12 11 17  07 25 25.920   +40 18 33.60  .92580 1.8352 147.7 21.9  970 173
2024 12 11 18  07 25 22.899   +40 20 12.50  .92555 1.8351 147.8 21.9  977 173
2024 12 11 19  07 25 19.869   +40 21 51.44  .92530 1.8350 147.8 21.9  985 173